H-2A R/B

Last updated on Sat Apr 13 2024 01:02:10 GMT+0100 (British Summer Time)

1 43682U 18084L 24103.20713245 .00007458 00000+0 41483-3 0 9994 2 43682 98.8523 179.9894 0045724 228.6495 131.0795 15.13149832299514
UTC large
Height (km)
Speed (km/s)
/
Latitude / Longitude
Inclination (degrees)
Orbital Period (minutes)
Azimuth
Elevation
Range (km)
Doppler Factor

Next 0 passes for location: London (51.5072 / 0.1276)

Sorry there are no passes over London.